Change the Weather History Date:

Thursday, January 27, 2011

  Actual Average Record
Temperature  
Mean Temperature 28 °F -  
Max Temperature 37 °F 30 °F 60 °F (2006)
Min Temperature 18 °F 9 °F -19 °F (1950)
Degree Days  
Heating Degree Days 38    
Moisture  
Dew Point 24 °F    
Average Humidity 79    
Maximum Humidity 88    
Minimum Humidity 69    
Precipitation  
Precipitation 0.00 in - - ()
Sea Level Pressure  
Sea Level Pressure 29.90 in    
Wind  
Wind Speed 10 mph (NW)    
Max Wind Speed 17 mph    
Max Gust Speed -    
Visibility 10 miles    
Events      
Averages and records for this station are not official NWS values.
T = Trace of Precipitation, MM = Missing Value Source: NWS Daily Summary

Daily Weather History Graph

Daily Weather History Graph

Search for Another Location

Airport or City:

Trip Planner

Search our weather history database for the weather conditions in past years. The results will help you decide how hot, cold, wet, or windy it might be!

Date:

Astronomy

Jan. 27, 2011 Rise Set
Actual Time 7:41 AM CST 5:33 PM CST
Civil Twilight 7:12 AM CST 6:03 PM CST
Nautical Twilight 6:38 AM CST 6:36 PM CST
Astronomical Twilight 6:05 AM CST 7:09 PM CST
Moon 2:13 AM CST (1/27) 11:51 AM CST (1/27)
Length of Visible Light 10h 51m
Length of Day
9h 51m
Last Quarter, 37% of the Moon is Illuminated
Jan 27
Last Quarter
Feb 2
New
Feb 11
First Quarter
Feb 18
Full
Feb 24
Last Quarter

Hourly Weather History & Observations

Time (CST) Temp. Windchill Dew Point Humidity Pressure Visibility Wind Dir Wind Speed Gust Speed Precip Events Conditions
12:54 AM 19.9 °F 8.6 °F 16.0 °F 85% 29.97 in 8.0 mi South 10.4 mph - N/A   Clear
1:54 AM 19.0 °F 7.5 °F 15.1 °F 85% 29.94 in 8.0 mi SSE 10.4 mph - N/A   Clear
2:54 AM 28.9 °F 20.4 °F 19.9 °F 69% 29.91 in 10.0 mi SSE 9.2 mph - N/A   Clear
4:54 AM 30.9 °F 22.2 °F 23.0 °F 72% 29.84 in 10.0 mi SW 10.4 mph - N/A   Overcast
5:54 AM 32.0 °F 27.5 °F 24.1 °F 73% 29.85 in 10.0 mi Variable 4.6 mph - N/A   Overcast
6:54 AM 27.0 °F 23.0 °F 21.9 °F 81% 29.86 in 10.0 mi West 3.5 mph - N/A   Clear
7:54 AM 18.0 °F - 15.1 °F 88% 29.87 in 9.0 mi Calm Calm - N/A   Clear
8:54 AM 28.0 °F 20.8 °F 21.9 °F 78% 29.88 in 10.0 mi North 6.9 mph - N/A   Clear
9:54 AM 33.1 °F 24.9 °F 26.1 °F 75% 29.89 in 10.0 mi North 10.4 mph - N/A   Clear
10:54 AM 36.0 °F 26.0 °F 28.0 °F 73% 29.90 in 10.0 mi NW 17.3 mph - N/A   Clear
11:54 AM 36.0 °F 27.1 °F 28.9 °F 76% 29.90 in 10.0 mi NW 13.8 mph - N/A   Clear
12:54 PM 37.0 °F 28.1 °F 28.9 °F 73% 29.89 in 10.0 mi NW 15.0 mph - N/A   Clear
1:54 PM 37.0 °F 27.7 °F 30.0 °F 76% 29.88 in 10.0 mi NW 16.1 mph - N/A   Clear
2:54 PM 37.9 °F 29.6 °F 30.0 °F 73% 29.88 in 10.0 mi NW 13.8 mph - N/A   Clear
3:54 PM 37.0 °F 28.9 °F 30.0 °F 76% 29.90 in 10.0 mi NW 12.7 mph - N/A   Clear
4:54 PM 36.0 °F 27.5 °F 28.9 °F 76% 29.91 in 10.0 mi NW 12.7 mph - N/A   Clear
5:54 PM 35.1 °F 26.4 °F 28.9 °F 78% 29.92 in 10.0 mi NW 12.7 mph - N/A   Clear
6:54 PM 32.0 °F 24.2 °F 27.0 °F 82% 29.94 in 10.0 mi NNW 9.2 mph - N/A   Clear
7:54 PM 28.0 °F 18.6 °F 24.1 °F 85% 29.95 in 10.0 mi NNW 10.4 mph - N/A   Clear
8:54 PM 25.0 °F 17.1 °F 21.9 °F 88% 29.94 in 9.0 mi NW 6.9 mph - N/A   Partly Cloudy
10:54 PM 28.0 °F 21.7 °F 24.1 °F 85% 29.94 in 10.0 mi West 5.8 mph - N/A   Clear
11:54 PM 27.0 °F 20.5 °F 23.0 °F 85% 29.94 in 8.0 mi NE 5.8 mph - N/A   Clear